Wind_Speed
36 47 54 57 61 54 48 48 43 47 51 49 44 47 33 32 36 38 36 38 41 38 45 42 41 42 43 41 39 40 40 40 35 36 32 33 35 33 33 33 37 40 42
40 50 51 57 62 64 50 48 51 51 49 42 39 35 38 34 37 38 38 40 44 45 43 44 42 42 43 46 43 41 40 42 40 36 33 32 35 33 35 34 35 40 42
40 41 35 48 54 50 49 48 46 45 45 35 36 39 38 38 39 40 42 42 45 47 44 49 45 45 45 46 48 44 42 43 42 39 36 33 34 35 33 37 43 47 38
37 48 50 31 25 39 38 37 39 36 31 34 34 38 36 35 36 39 48 50 47 48 46 47 49 51 46 44 44 44 44 45 44 40 36 35 35 34 37 34 37 42 43
26 39 44 49 38 31 35 37 39 33 30 31 31 24 27 31 32 39 38 47 53 50 50 49 46 48 51 48 46 46 45 45 46 44 38 36 36 35 35 37 37 39 45
29 38 38 41 40 35 38 36 36 34 34 29 28 29 29 27 33 33 40 38 42 50 45 42 48 49 45 50 50 46 48 47 47 46 41 39 37 36 39 39 39 40 39
38 38 35 37 42 43 41 41 33 32 35 34 30 30 25 25 26 28 26 25 29 42 53 48 46 45 53 54 53 48 49 50 50 47 45 42 38 39 43 38 39 42 40
31 45 44 41 36 43 46 39 41 41 39 40 38 30 29 29 28 27 28 23 19 25 48 51 48 49 46 47 46 45 49 49 50 46 46 43 40 43 42 41 39 39 40
20 25 30 33 34 37 38 41 43 38 37 33 36 36 34 34 32 32 34 31 25 22 27 38 60 50 49 45 46 45 55 52 51 48 48 45 44 45 43 42 40 41 39
5 4 10 18 18 22 28 32 33 37 36 34 33 33 35 36 33 34 32 37 31 24 22 29 36 53 60 54 51 50 55 40 46 47 47 46 45 43 42 42 41 41 40
14 14 13 13 13 12 15 15 19 24 29 32 35 36 39 39 39 37 33 33 33 32 31 29 32 38 39 59 56 51 46 44 43 46 44 48 45 43 41 42 41 42 42
22 22 22 22 22 22 23 24 24 25 25 27 28 37 38 39 39 39 39 37 36 35 37 35 31 33 38 42 53 60 47 44 49 46 43 46 45 43 42 42 42 42 42
25 26 28 31 33 32 34 34 33 35 35 36 37 39 40 40 41 43 44 44 43 41 39 40 40 33 36 39 40 45 51 51 50 44 42 47 49 45 42 42 43 42 42
25 27 27 28 33 34 35 38 42 47 47 46 46 46 46 48 50 50 49 50 48 45 45 42 43 44 37 37 41 41 46 53 50 47 54 40 48 46 44 44 44 41 42
24 25 28 31 32 33 35 34 36 37 41 46 49 52 57 57 58 59 60 60 58 55 52 51 48 47 47 40 39 44 45 47 54 56 51 45 45 45 46 46 44 42 41
27 28 30 32 34 36 37 38 36 37 39 40 46 51 55 62 69 72 70 70 68 67 62 59 56 52 51 49 42 43 46 44 51 44 40 44 51 47 47 46 46 44 41
33 33 36 39 39 38 38 40 40 39 39 39 38 41 45 51 56 63 69 73 75 75 72 70 66 61 56 51 50 45 47 48 48 48 48 47 47 47 48 46 48 46 42
32 35 39 42 41 38 38 37 36 37 41 38 34 36 40 43 43 44 47 47 57 70 74 74 73 70 68 61 52 53 48 51 56 59 53 53 52 51 47 48 48 48 47
33 36 36 32 28 29 32 34 34 33 35 34 33 33 35 38 40 40 42 43 43 45 52 67 73 71 70 67 61 56 53 52 57 53 53 51 51 50 49 51 48 47 46
34 32 27 25 24 25 27 29 28 29 30 33 34 33 33 34 39 41 40 40 42 45 49 49 56 68 69 65 64 62 55 55 54 55 55 48 47 47 44 45 48 49 44
32 30 27 25 25 26 28 30 30 28 29 31 31 32 30 30 30 35 40 42 45 46 46 46 48 52 62 66 65 61 53 56 54 62 54 47 53 53 47 47 48 48 43
34 33 31 30 30 30 32 33 32 31 30 29 31 31 30 29 29 32 35 39 44 45 46 44 45 51 51 62 65 63 59 58 62 63 55 52 57 52 51 48 50 53 52
35 34 33 32 32 32 32 30 29 29 30 30 29 31 30 30 28 30 36 41 42 46 50 54 51 49 49 54 62 64 59 60 61 64 64 58 54 50 47 44 45 43 44
37 36 34 33 32 32 32 32 31 29 29 29 29 27 27 26 26 27 27 25 24 26 32 40 46 45 46 48 52 55 56 58 63 59 55 56 59 53 53 49 47 45 46
39 38 36 33 32 31 31 31 30 28 27 27 27 23 21 21 22 22 21 15 17 21 28 35 39 42 40 37 40 46 50 55 51 57 59 54 61 61 58 55 55 54 55
41 40 38 36 32 31 29 28 26 23 22 23 23 21 18 16 17 17 17 14 10 15 23 26 28 35 37 36 39 41 47 52 45 48 49 49 53 54 57 60 60 59 56
Wind_Direction
233 233 240 245 251 247 246 242 248 254 259 259 260 262 256 257 258 264 264 260 255 252 243 242 241 240 241 241 243 245 247 252 253 251 249 259 267 275 267 266 263 263 263
224 217 230 245 253 252 241 242 245 249 256 258 252 251 256 256 259 260 260 262 256 253 247 237 240 239 242 241 239 244 248 249 249 250 250 250 260 275 267 266 262 265 267
233 215 211 222 234 232 228 238 245 250 250 242 247 247 251 248 248 252 255 255 253 252 250 237 238 238 241 242 240 242 243 247 249 251 251 255 257 264 269 269 272 275 265
238 241 235 231 219 220 219 234 240 234 233 236 238 240 248 247 248 256 253 253 247 245 246 241 239 238 238 234 240 240 242 246 249 251 255 253 258 262 266 275 272 268 272
235 237 238 243 243 236 235 226 236 239 226 232 233 234 251 254 255 255 255 254 248 237 242 244 242 241 235 236 242 240 240 245 249 253 255 257 257 259 267 272 275 278 268
235 226 229 230 231 234 229 228 226 227 230 232 229 239 248 255 250 252 252 263 252 240 231 235 240 245 239 239 240 239 240 244 248 253 256 259 256 263 265 269 277 281 272
229 232 222 225 221 225 229 243 239 234 229 234 232 236 246 251 255 248 257 257 258 241 235 237 240 245 247 244 239 240 240 241 245 250 255 258 258 262 262 267 274 275 285
210 223 240 234 233 241 239 234 229 229 242 238 243 239 239 248 253 255 256 249 257 262 242 239 239 244 251 251 236 244 243 245 245 248 254 255 256 259 262 264 271 278 284
248 245 250 252 253 250 255 254 243 237 254 261 260 242 234 243 247 255 256 262 253 258 260 254 240 243 244 245 246 244 247 244 243 245 251 254 255 259 261 265 270 272 282
327 273 240 235 242 252 254 253 257 249 252 250 248 250 241 242 246 246 258 254 257 255 265 263 262 247 242 245 250 248 252 249 244 248 251 253 254 256 261 265 269 273 278
271 274 276 282 280 277 266 258 252 252 256 257 253 244 241 243 247 249 248 250 255 249 255 267 257 257 251 243 246 247 252 254 252 246 251 254 255 255 257 264 266 271 278
252 252 251 246 250 256 265 266 261 258 257 254 254 246 246 248 247 249 252 250 252 256 249 262 267 259 252 248 246 245 247 253 254 253 260 249 255 257 255 261 263 268 276
275 268 259 256 253 251 250 251 255 258 257 257 259 259 259 256 254 252 255 256 258 255 259 252 256 267 256 251 248 242 242 247 250 257 251 256 256 254 253 257 262 264 269
275 272 269 266 264 261 257 255 255 253 253 256 259 259 261 261 262 260 259 258 257 259 256 258 253 255 260 257 250 246 240 242 250 250 253 246 251 253 254 255 262 263 266
275 276 277 274 271 267 268 270 274 275 268 262 263 264 263 264 261 261 260 259 257 256 256 257 256 252 255 259 254 246 246 243 249 251 238 242 249 257 256 255 260 261 265
294 287 284 283 280 276 276 277 280 281 276 271 268 265 259 259 259 260 258 255 257 256 253 254 252 253 251 251 255 250 248 247 242 242 243 247 253 252 257 256 255 260 264
303 300 294 285 282 280 281 278 276 281 278 271 264 267 266 263 261 255 251 248 248 249 250 250 252 251 249 249 250 250 246 240 241 242 243 249 250 250 259 259 255 259 261
300 299 297 288 280 275 275 279 272 273 284 278 277 264 271 266 262 261 259 256 252 247 244 243 244 245 249 246 248 248 247 242 240 246 250 249 247 250 257 258 254 253 264
305 303 301 293 280 273 278 282 273 272 283 286 285 285 277 266 259 262 259 257 256 255 250 243 239 239 241 243 241 245 243 241 240 244 239 246 253 250 256 256 251 252 261
308 305 299 298 294 294 288 286 279 277 281 289 283 290 284 274 262 259 258 259 258 254 250 247 244 238 235 234 232 235 239 239 238 234 241 240 244 245 251 255 251 249 260
308 306 301 298 298 297 294 292 290 287 281 283 291 290 292 287 281 268 262 257 257 260 256 250 243 241 235 230 229 230 232 233 232 232 235 241 246 252 253 253 247 248 258
315 306 301 296 295 297 299 293 286 284 284 282 288 291 293 291 287 282 274 267 261 256 250 247 245 239 236 230 227 229 232 229 223 230 237 246 246 243 252 247 250 253 259
313 313 306 300 297 296 301 300 293 287 281 283 284 291 290 295 293 290 284 276 265 255 247 245 244 236 237 232 228 227 224 225 223 228 233 235 237 243 244 244 248 256 258
307 306 309 304 300 299 300 304 301 293 287 282 281 286 294 301 301 302 297 283 266 250 239 231 226 229 232 232 230 226 224 224 222 230 232 237 233 235 239 244 248 257 259
302 300 301 302 302 300 300 301 300 293 287 282 282 281 290 306 314 317 316 306 262 243 230 217 222 226 226 229 229 225 222 223 230 231 233 243 237 234 235 241 247 254 253
294 294 294 295 296 299 301 300 295 288 284 282 283 280 285 299 321 331 332 320 285 239 221 214 220 225 226 224 219 221 225 219 233 234 234 242 239 238 239 241 245 252 255
Height
5576 5578 5589 5596 5606 5613 5618 5621 5629 5633 5633 5638 5640 5642 5644 5645 5646 5649 5651 5655 5659 5665 5669 5674 5680 5684 5689 5692 5694 5697 5701 5704 5708 5708 5710 5709 5708 5710 5710 5712 5712 5713 5715
5557 5566 5575 5582 5590 5598 5604 5612 5617 5624 5625 5625 5628 5631 5634 5635 5638 5640 5643 5647 5650 5654 5659 5662 5668 5673 5677 5683 5684 5687 5692 5695 5697 5700 5701 5702 5702 5702 5702 5702 5703 5704 5705
5549 5554 5558 5569 5576 5585 5592 5600 5606 5610 5615 5618 5620 5621 5624 5626 5628 5630 5634 5638 5640 5644 5647 5651 5657 5662 5666 5671 5674 5678 5681 5685 5687 5689 5693 5693 5695 5694 5693 5693 5694 5693 5694
5547 5547 5552 5558 5565 5575 5581 5590 5597 5601 5603 5606 5609 5612 5614 5617 5618 5621 5625 5627 5631 5634 5638 5641 5646 5650 5655 5659 5663 5667 5671 5673 5677 5678 5683 5685 5686 5686 5685 5685 5684 5684 5684
5540 5542 5547 5553 5563 5569 5577 5581 5587 5590 5594 5599 5601 5602 5605 5606 5607 5611 5613 5615 5618 5623 5626 5630 5634 5638 5642 5646 5651 5655 5659 5662 5664 5667 5672 5675 5677 5678 5676 5675 5674 5674 5674
5534 5539 5542 5548 5555 5562 5569 5574 5577 5582 5586 5590 5592 5595 5598 5598 5600 5602 5604 5605 5603 5610 5615 5618 5621 5624 5628 5633 5638 5642 5647 5650 5652 5657 5662 5664 5667 5666 5665 5664 5664 5664 5663
5530 5534 5538 5543 5550 5556 5562 5565 5567 5572 5577 5581 5583 5586 5588 5590 5591 5593 5594 5596 5594 5596 5602 5607 5609 5613 5617 5620 5624 5630 5634 5638 5641 5647 5651 5654 5655 5654 5653 5655 5654 5652 5651
5527 5531 5535 5540 5544 5548 5552 5557 5559 5563 5567 5571 5574 5576 5579 5581 5583 5585 5587 5587 5587 5587 5590 5594 5597 5602 5606 5607 5612 5616 5622 5626 5631 5636 5639 5641 5642 5643 5644 5643 5644 5643 5641
5524 5527 5531 5534 5536 5539 5544 5547 5551 5553 5557 5559 5562 5565 5568 5570 5573 5575 5576 5578 5579 5579 5579 5580 5584 5590 5596 5597 5600 5608 5609 5612 5617 5622 5626 5628 5630 5632 5633 5633 5634 5631 5629
5524 5526 5527 5529 5530 5532 5533 5535 5538 5542 5547 5549 5552 5555 5557 5560 5561 5563 5566 5567 5569 5570 5569 5571 5571 5573 5581 5584 5588 5593 5596 5597 5604 5609 5613 5615 5617 5619 5622 5621 5622 5621 5619
5523 5523 5524 5526 5527 5527 5528 5529 5531 5533 5537 5539 5541 5543 5547 5549 5550 5553 5553 5556 5559 5560 5561 5561 5562 5563 5564 5568 5573 5578 5584 5588 5590 5596 5599 5602 5605 5607 5610 5609 5610 5609 5609
5517 5518 5519 5520 5521 5522 5523 5524 5526 5527 5528 5530 5532 5534 5536 5538 5540 5541 5542 5544 5546 5549 5549 5552 5552 5553 5556 5557 5561 5568 5572 5576 5579 5582 5585 5589 5593 5595 5597 5599 5599 5599 5598
5509 5509 5510 5510 5511 5511 5512 5513 5514 5516 5516 5518 5520 5522 5524 5525 5527 5529 5530 5531 5533 5536 5539 5540 5542 5543 5544 5547 5549 5552 5557 5562 5567 5569 5573 5576 5581 5582 5584 5587 5589 5589 5588
5502 5502 5501 5501 5501 5501 5501 5501 5502 5502 5502 5502 5504 5506 5509 5510 5511 5513 5515 5516 5517 5521 5525 5528 5530 5532 5533 5535 5537 5539 5543 5548 5552 5556 5559 5560 5566 5570 5572 5575 5576 5577 5576
5496 5494 5492 5491 5490 5489 5488 5488 5487 5485 5484 5484 5484 5486 5488 5491 5494 5495 5498 5499 5502 5504 5507 5512 5517 5519 5521 5523 5525 5527 5530 5534 5538 5541 5545 5548 5554 5558 5560 5562 5564 5564 5564
5486 5484 5483 5481 5479 5478 5475 5473 5472 5469 5467 5464 5463 5463 5465 5467 5470 5472 5475 5479 5482 5485 5488 5494 5499 5505 5507 5510 5513 5515 5517 5520 5525 5528 5531 5537 5541 5545 5547 5549 5551 5552 5552
5474 5471 5468 5467 5465 5463 5461 5460 5457 5455 5454 5451 5447 5445 5445 5445 5444 5445 5446 5449 5454 5461 5466 5471 5478 5485 5492 5495 5499 5503 5506 5510 5511 5514 5518 5524 5528 5531 5534 5536 5538 5540 5540
5463 5460 5456 5452 5450 5449 5448 5446 5444 5442 5440 5436 5431 5430 5428 5427 5426 5426 5427 5427 5429 5432 5438 5446 5453 5462 5470 5478 5483 5488 5492 5496 5500 5501 5506 5510 5513 5517 5520 5522 5524 5526 5528
5453 5448 5443 5438 5436 5436 5435 5433 5432 5430 5427 5422 5418 5415 5412 5411 5411 5411 5411 5411 5412 5414 5416 5421 5428 5437 5446 5456 5464 5471 5476 5480 5484 5489 5492 5497 5500 5503 5506 5508 5509 5512 5514
5443 5438 5434 5431 5428 5426 5423 5421 5418 5415 5413 5411 5408 5405 5401 5398 5397 5396 5396 5396 5397 5399 5401 5404 5408 5415 5423 5433 5443 5452 5458 5463 5469 5474 5478 5480 5484 5488 5491 5494 5496 5498 5501
5434 5430 5426 5423 5420 5417 5414 5411 5408 5405 5403 5400 5397 5394 5389 5386 5383 5382 5381 5381 5381 5382 5384 5387 5391 5397 5403 5412 5423 5432 5438 5446 5452 5459 5462 5465 5469 5474 5476 5479 5482 5486 5488
5425 5421 5417 5414 5410 5407 5404 5401 5398 5395 5392 5390 5387 5383 5379 5375 5371 5368 5366 5364 5363 5364 5367 5371 5375 5381 5385 5394 5404 5414 5421 5429 5437 5443 5448 5450 5455 5460 5462 5464 5468 5472 5474
5418 5413 5409 5405 5401 5398 5395 5391 5387 5385 5382 5380 5377 5373 5369 5365 5361 5356 5351 5346 5343 5343 5347 5353 5358 5365 5372 5379 5387 5396 5402 5411 5420 5427 5433 5437 5441 5444 5447 5451 5455 5457 5459
5409 5405 5401 5396 5392 5388 5385 5381 5378 5375 5373 5370 5368 5365 5361 5357 5351 5345 5339 5332 5330 5330 5332 5337 5345 5353 5360 5367 5373 5380 5388 5397 5405 5411 5416 5422 5427 5430 5433 5437 5440 5442 5445
5399 5395 5392 5388 5384 5380 5377 5373 5369 5366 5364 5362 5360 5357 5354 5351 5345 5339 5333 5328 5326 5326 5328 5332 5337 5343 5349 5356 5362 5369 5376 5385 5390 5396 5402 5406 5410 5415 5419 5422 5425 5428 5430
5387 5384 5381 5378 5375 5371 5368 5364 5360 5358 5356 5355 5353 5351 5349 5346 5342 5337 5332 5327 5324 5324 5326 5329 5332 5338 5345 5350 5355 5359 5365 5373 5379 5384 5387 5392 5396 5400 5404 5408 5410 5413 5415